2023/08/28 00:00:00,37.3,21.0
2023/08/28 00:10:00,37.3,21.2
2023/08/28 00:20:00,37.3,21.2
2023/08/28 00:30:00,37.2,21.2
2023/08/28 00:40:00,37.2,21.1
2023/08/28 00:50:00,37.2,21.2
2023/08/28 01:00:00,37.2,21.1
2023/08/28 01:10:00,37.1,21.0
2023/08/28 01:20:00,37.0,20.9
2023/08/28 01:30:00,36.9,20.8
2023/08/28 01:40:00,36.5,20.8
2023/08/28 01:50:00,36.5,21.2
2023/08/28 02:00:00,37.0,21.3
2023/08/28 02:10:00,37.0,21.4
2023/08/28 02:20:00,36.5,21.2
2023/08/28 02:30:00,37.1,21.3
2023/08/28 02:40:00,37.1,21.3
2023/08/28 02:50:00,37.2,21.3
2023/08/28 03:00:00,36.9,21.4
2023/08/28 03:10:00,37.0,21.4
2023/08/28 03:20:00,37.2,21.2
2023/08/28 03:30:00,37.1,21.1
2023/08/28 03:40:00,37.0,20.9
2023/08/28 03:50:00,37.0,20.9
2023/08/28 04:00:00,36.9,20.8
2023/08/28 04:10:00,36.8,20.6
2023/08/28 04:20:00,36.5,20.7
2023/08/28 04:30:00,36.3,20.8
2023/08/28 04:40:00,36.0,20.5
2023/08/28 04:50:00,36.1,20.4
2023/08/28 05:00:00,36.9,20.5
2023/08/28 05:10:00,47.9,20.2
2023/08/28 05:20:00,63.9,20.4
2023/08/28 05:30:00,63.9,20.4
2023/08/28 05:40:00,63.6,20.2
2023/08/28 05:50:00,63.2,20.4
2023/08/28 06:00:00,62.9,20.3
2023/08/28 06:10:00,62.4,21.0
2023/08/28 06:20:00,61.9,20.4
2023/08/28 06:30:00,61.4,20.5
2023/08/28 06:40:00,60.9,20.5
2023/08/28 06:50:00,60.5,20.7
2023/08/28 07:00:00,60.4,20.9
2023/08/28 07:10:00,60.1,21.0
2023/08/28 07:20:00,59.7,21.5
2023/08/28 07:30:00,59.5,21.5
2023/08/28 07:40:00,59.5,21.4
2023/08/28 07:50:00,59.3,22.1
2023/08/28 08:00:00,59.1,22.3
2023/08/28 08:10:00,59.2,22.7
2023/08/28 08:20:00,59.2,23.3
2023/08/28 08:30:00,59.2,22.8
2023/08/28 08:40:00,59.1,23.2
2023/08/28 08:50:00,59.2,23.6
2023/08/28 09:00:00,59.2,23.9
2023/08/28 09:10:00,59.1,24.5
2023/08/28 09:20:00,59.2,24.4
2023/08/28 09:30:00,59.3,24.8
2023/08/28 09:40:00,58.8,25.4
2023/08/28 09:50:00,58.6,25.8
2023/08/28 10:00:00,58.6,26.3
2023/08/28 10:10:00,58.2,26.1
2023/08/28 10:20:00,58.5,26.7
2023/08/28 10:30:00,58.7,26.7
2023/08/28 10:40:00,58.9,26.9
2023/08/28 10:50:00,59.1,27.8
2023/08/28 11:00:00,58.6,29.2
2023/08/28 11:10:00,57.5,29.2
2023/08/28 11:20:00,---,29.3
2023/08/28 11:30:00,56.6,29.6
2023/08/28 11:40:00,56.6,30.3
2023/08/28 11:50:00,56.4,29.7
2023/08/28 12:00:00,---,30.4
2023/08/28 12:10:00,---,30.3
2023/08/28 12:20:00,55.6,29.5
2023/08/28 12:30:00,56.1,29.4
2023/08/28 12:40:00,57.9,29.1
2023/08/28 12:50:00,57.6,28.5
2023/08/28 13:00:00,59.1,27.8
2023/08/28 13:10:00,59.0,29.8
2023/08/28 13:20:00,57.8,29.0
2023/08/28 13:30:00,58.1,29.6
2023/08/28 13:40:00,56.9,29.4
2023/08/28 13:50:00,---,29.7
2023/08/28 14:00:00,---,29.4
2023/08/28 14:10:00,---,29.1
2023/08/28 14:20:00,---,29.4
2023/08/28 14:30:00,---,29.8
2023/08/28 14:40:00,---,29.2
2023/08/28 14:50:00,---,29.9
2023/08/28 15:00:00,---,28.4
2023/08/28 15:10:00,57.5,28.0
2023/08/28 15:20:00,59.2,28.0
2023/08/28 15:30:00,58.3,28.4
2023/08/28 15:40:00,57.8,27.2
2023/08/28 15:50:00,59.4,27.9
2023/08/28 16:00:00,59.0,28.3
2023/08/28 16:10:00,58.4,28.2
2023/08/28 16:20:00,58.1,27.8
2023/08/28 16:30:00,58.5,27.9
2023/08/28 16:40:00,58.8,27.2
2023/08/28 16:50:00,59.7,26.4
2023/08/28 17:00:00,60.1,26.1
2023/08/28 17:10:00,60.4,25.8
2023/08/28 17:20:00,60.5,25.2
2023/08/28 17:30:00,60.5,25.4
2023/08/28 17:40:00,60.5,25.4
2023/08/28 17:50:00,60.5,25.1
2023/08/28 18:00:00,60.5,24.7
2023/08/28 18:10:00,60.6,24.7
2023/08/28 18:20:00,60.7,24.4
2023/08/28 18:30:00,60.8,24.3
2023/08/28 18:40:00,60.9,23.9
2023/08/28 18:50:00,61.0,23.7
2023/08/28 19:00:00,61.1,23.7
2023/08/28 19:10:00,61.3,23.6
2023/08/28 19:20:00,61.3,23.4
2023/08/28 19:30:00,61.4,23.4
2023/08/28 19:40:00,61.6,23.3
2023/08/28 19:50:00,61.7,23.0
2023/08/28 20:00:00,62.0,22.8
2023/08/28 20:10:00,62.4,22.8
2023/08/28 20:20:00,62.7,22.9
2023/08/28 20:30:00,63.2,23.0
2023/08/28 20:40:00,63.8,23.0
2023/08/28 20:50:00,54.9,22.9
2023/08/28 21:00:00,40.5,22.9
2023/08/28 21:10:00,38.0,22.5
2023/08/28 21:20:00,37.6,22.4
2023/08/28 21:30:00,37.1,22.4
2023/08/28 21:40:00,37.5,22.1
2023/08/28 21:50:00,37.4,22.1
2023/08/28 22:00:00,37.5,22.1
2023/08/28 22:10:00,37.4,21.8
2023/08/28 22:20:00,37.5,22.0
2023/08/28 22:30:00,37.5,22.0
2023/08/28 22:40:00,37.6,21.8
2023/08/28 22:50:00,37.6,21.5
2023/08/28 23:00:00,37.7,21.8
2023/08/28 23:10:00,37.5,22.0
2023/08/28 23:20:00,37.7,21.7
2023/08/28 23:30:00,37.7,21.7
2023/08/28 23:40:00,37.6,21.7
2023/08/28 23:50:00,37.4,21.6
